Aérodrome :
LOGIN :

S'inscrire | Disclaimer

   EN    FR    IT 

 










Légende :    VFR   VFR Marginal   IFR   IFR Intensif   IFR Très Intensif
Visi : 
Plafond : 
>= 8 km
>= 3000ft
5 à 8 km
1000 à 3000 ft
1500m à 5 km
500 à 1000 ft
800 à 1500m
200 à 500 ft
< 800m
< 200 ft
Symboles :   Orages  Brouillard  Fortes neiges  Fortes précipitations  Vent > 20 kt
SIGMETs :   Divers  Orages  Givrage  Turbulence  Onde Orograph.  Cendres Volcan.







- Altitude de l'aérodrome : 143 ft
- Code IATA : VDP


EKVD - Kolding Vamdrup

DERNIER METAR :
  • 131820Z AUTO 19011KT 160V220 //// ///////// 01/01 Q0987

METARs EXPIRÉS :
  • 131750Z AUTO 18011KT //// ///////// 01/01 Q0987
  • 131720Z AUTO 19012KT 160V220 //// ///////// 01/01 Q0988
  • 131650Z AUTO 19011KT //// ///////// 01/01 Q0989
  • 131620Z AUTO 19011KT 160V220 //// ///////// 01/01 Q0989

Prévision TAF périmée.
Pas de NOTAMs connus pour ce terrain.



MET'MAP, la Météo Aéronautique d'un coup d'oeil ! - Copyright ORBIFLY Décembre 2007 - Disclaimer

ORBIFLY MET'MAP TEAM :

Programmation & Développement : Alexandra Zaïnal
Conception & Développement : Baudouin d'Aumeries
Co-Programmation & Développement : Marc-Olivier Méhu
Soutien technique & logistique : Manuel Goepfert

Contact : metmap@orbifly.com




SOURCES & CREDITS :

   NOAA